[[{"header":{"parameterUnit":"m.s-1","parameterCategory":1,"la1":30.2991,"la2":30.254,"lo1":-89.0895,"lo2":-89.0444,"dy":0.0017,"dx":0.0017,"nx":28,"ny":28,"refTime":"2025-01-13T03:00:00:Z","depth":0,"parameterNumber":2,"parameterNumberName":"U-component_of_WINDS"},"data":[0,0,0,0,0,0,0,0,0,0,0,0,0,0,0,0,0,0,0,0,0,0,0,0,0,0,0,0,0,0,0,0,0,0,0,0,0,0,0,0,0,0,0,0,0,0,0,0,0,0,0,0,0,0,0,0,0,0,-1.9456,-1.9457,0,-1.9525,-1.9526,-1.9527,-1.9449,-1.9446,-1.9444,-1.9441,-1.9516,-1.9521,-1.9526,0,0,0,0,0,0,0,0,0,0,0,0,0,-1.9259,-1.9263,-1.9456,-1.9457,-1.9458,-1.9525,-1.9526,-1.9527,-1.945,-1.9446,-1.9443,-1.9439,-1.9515,-1.952,-1.9526,0,0,0,0,0,0,0,0,0,0,0,0,0,-1.9339,-1.9265,-1.9456,-1.9427,-1.9425,-1.9525,-1.9526,-1.9528,-1.9451,-1.9446,-1.9442,-1.9438,-1.9513,-1.952,-1.9527,-1.966,0,0,-1.9549,-1.9552,0,0,0,0,0,0,0,0,-1.9334,-1.9346,-1.943,-1.9429,-1.9427,-1.9474,-1.9485,-1.9572,-1.9452,-1.9441,-1.9441,-1.9436,-1.9506,-1.9514,-1.9537,-1.9663,-1.9667,-1.9549,-1.9554,-1.9557,-1.9559,0,0,0,0,0,0,0,-1.9329,-1.9342,-1.9483,-1.9432,-1.943,-1.9412,-1.9418,-1.9501,-1.9498,-1.9442,-1.9436,-1.9445,-1.9505,-1.953,-1.9538,-1.9668,-1.9549,-1.9556,-1.956,-1.9563,-1.9908,-1.9913,0,0,0,0,0,0,-1.9326,-1.9338,-1.9481,-1.9485,-1.9369,-1.9419,-1.9426,-1.9464,-1.9497,-1.9497,-1.9449,-1.9441,-1.952,-1.953,-1.954,-1.9699,-1.9557,-1.9564,-1.9568,-1.9903,-1.9909,-1.9914,0,0,0,0,0,0,-1.9322,-1.9339,-1.9478,-1.941,-1.9427,-1.9427,-1.947,-1.9467,-1.9493,-1.9502,-1.9502,-1.9475,-1.9517,-1.953,-1.9631,-1.9701,-1.9567,-1.9573,-1.9897,-1.9905,-1.9912,-2.0018,0,0,0,0,0,0,-1.9317,-1.9338,-1.9388,-1.9412,-1.9431,-1.9567,-1.9474,-1.9472,-1.9505,-1.9495,-1.9527,-1.9528,-1.9514,-1.962,-1.9638,-1.9708,-1.9579,-1.9891,-1.9901,-1.9909,-2.0009,-2.0028,-2.0045,0,0,0,0,0,-1.931,-1.9416,-1.9391,-1.9409,-1.9493,-1.9571,-1.9582,-1.9563,-1.9511,-1.9562,-1.9567,-1.9527,-1.9689,-1.9631,-1.965,-1.9724,-1.9887,-1.9898,-1.9909,-2.0001,-2.0025,-2.0045,0,0,0,0,0,0,-1.9403,-1.9419,-1.9392,-1.9508,-1.9539,-1.9558,-1.9622,-1.9589,-1.9637,-1.9626,-1.9602,-1.961,-1.9717,-1.973,-1.9665,-1.9855,-1.978,-1.9795,-1.9843,-1.9866,-1.9884,-1.988,-1.9585,0,0,0,0,0,-1.9436,-1.9498,-1.9509,-1.9611,-1.9628,-1.9622,-1.9656,-1.9638,-1.9669,-1.9683,-1.9696,-1.9729,-1.9787,-1.9827,-1.9881,-2.0009,-2.0016,-2.0069,-2.0087,-2.0102,-2.0117,-2.0187,-2.0211,-1.995,-1.995,-1.995,0,0,-1.9508,-1.9524,-1.9565,-1.963,-1.9652,-1.9717,-1.9634,-1.9706,-1.9755,-1.9694,-1.979,-1.9801,-1.9836,-1.9951,-2.0002,-1.9965,-2.019,-2.0116,-2.0128,-2.0135,-2.0201,-2.0225,-2.0247,-1.9958,-1.9957,-1.9955,0,0,-1.9672,-1.9689,-1.9777,-1.98,-1.9833,-1.9828,-1.9849,-1.9873,-1.9877,-1.9973,-1.9928,-1.9986,-2.0087,-2.0114,-2.0141,-2.0313,-2.0279,-2.0332,-2.0429,-2.0498,-2.0518,-2.0536,-2.06,-2.0623,-2.0345,-2.0346,-2.0346,0,-1.9757,-1.9852,-1.9826,-1.9902,-1.9933,-1.9878,-1.9968,-1.9991,-2.0041,-2.0065,-2.0021,-2.0147,-2.0167,-2.0288,-2.033,-2.0353,-2.0378,-2.033,-2.0517,-2.0535,-2.0552,-2.0612,-2.0636,-2.0352,-2.0351,-2.0351,-2.035,0,-1.9956,-2.0023,-2.009,-2.0139,-2.0176,-2.0259,-2.0246,-2.0288,-2.0266,-2.0267,-2.0365,-2.0386,-2.0444,-2.0471,-2.0451,-2.059,-2.0566,-2.052,-2.0445,-2.0583,-2.064,-2.0663,-2.0361,-2.0359,-2.0357,-2.0356,0,0,-2.0185,-2.0215,-2.0241,-2.0262,-2.0294,-2.0346,-2.0425,-2.048,-2.0518,-2.0553,-2.0621,-2.0707,-2.0664,-2.0695,-2.0678,-2.0737,-2.0875,-2.0684,-2.0685,-2.0722,-2.1032,-2.1069,-2.1096,-2.085,-2.0854,-2.0858,-2.103,0,-2.0351,-2.0489,-2.0467,-2.0601,-2.0663,-2.0611,-2.068,-2.0708,-2.071,-2.0764,-2.0765,-2.0828,-2.0766,-2.0784,-2.084,-2.0846,-2.0938,-2.0833,-2.0916,-2.0919,-2.0912,-2.1125,-2.1164,-2.1326,-2.1051,-2.1055,-2.1058,0,-2.0564,-2.0607,-2.0746,-2.0768,-2.0793,-2.0856,-2.0906,-2.0957,-2.0987,-2.0984,-2.1018,-2.0989,-2.107,-2.099,-2.1103,-2.1032,-2.1064,-2.1072,-2.1077,-2.1088,-2.1,-2.1144,-2.1376,-2.1402,-2.1092,-2.1089,-2.1087,0,-2.072,-2.0812,-2.0907,-2.0927,-2.0954,-2.1,-2.1013,-2.1038,-2.1073,-2.1116,-2.1138,-2.119,-2.122,-2.1261,-2.1247,-2.119,-2.1364,-2.1282,-2.1366,-2.1366,-2.1408,-2.1406,-2.1652,-2.1423,-2.1422,-2.1422,-2.1421,0,-2.0911,-2.0999,-2.0978,-2.1037,-2.1135,-2.1108,-2.1206,-2.1213,-2.1236,-2.1297,-2.1253,-2.1312,-2.1288,-2.1345,-2.1335,-2.1431,-2.1444,-2.1445,-2.1442,-2.1451,-2.1452,-2.1475,-2.1465,-2.1428,-2.1427,-2.1426,-2.1425,0,-2.1104,-2.1092,-2.1194,-2.121,-2.1216,-2.1287,-2.1302,-2.1358,-2.1355,-2.1432,-2.1449,-2.1445,-2.151,-2.1499,-2.1571,-2.1564,-2.1685,-2.1666,-2.1675,-2.1672,-2.1757,-2.175,-2.2029,-2.2066,-2.181,-2.1812,-2.1814,0,-2.1228,-2.1294,-2.1317,-2.1354,-2.137,-2.143,-2.1465,-2.1441,-2.1479,-2.1518,-2.157,-2.163,-2.1677,-2.1783,-2.1788,-2.1843,-2.1827,-2.1921,-2.1836,-2.1843,-2.1833,-2.183,-2.1838,-2.194,-2.1943,-2.1945,-2.1947,0,-2.145,-2.1441,-2.1492,-2.1541,-2.1583,-2.1621,-2.1655,-2.1688,-2.1667,-2.1712,-2.1776,-2.1813,-2.1885,-2.1947,-2.1998,-2.2013,-2.1978,-2.1973,-2.1996,-2.2008,-2.2011,-2.2013,-2.1725,-2.1968,-2.1966,-2.1964,-2.1963,-2.1962,-2.1615,-2.1672,-2.1697,-2.1755,-2.1777,-2.1809,-2.1863,-2.1866,-2.1919,-2.1976,-2.1958,-2.2032,-2.206,-2.2125,-2.2145,-2.2204,-2.2169,-2.2202,-2.2211,-2.222,-2.2231,-2.1998,-2.2213,-2.2212,-2.2211,-2.2211,-2.221,0,-2.1838,-2.185,-2.1904,-2.1952,-2.1998,-2.1957,-2.1992,-2.2034,-2.21,-2.2128,-2.2175,-2.225,-2.2308,-2.2316,-2.2372,-2.2418,-2.2403,-2.2434,-2.2432,-2.2437,-2.2258,-2.2234,-2.2445,-2.2445,-2.2445,-2.2445,-2.2444,-2.2444,-2.196,-2.2055,-2.2048,-2.2154,-2.2166,-2.2237,-2.2261,-2.2291,-2.2313,-2.2399,-2.2447,-2.245,-2.2471,-2.2528,-2.2581,-2.2581,-2.2606,-2.2643,-2.2638,-2.2472,-2.2449,-2.2427,-2.2404,-2.2648,-2.2648,-2.2813,-2.2814,-2.2815]},{"header":{"parameterUnit":"m.s-1","parameterCategory":1,"la1":30.2991,"la2":30.254,"lo1":-89.0895,"lo2":-89.0444,"dy":0.0017,"dx":0.0017,"nx":28,"ny":28,"refTime":"2025-01-13T03:00:00:Z","depth":0,"parameterNumber":3,"parameterNumberName":"V-component_of_WINDS"},"data":[0,0,0,0,0,0,0,0,0,0,0,0,0,0,0,0,0,0,0,0,0,0,0,0,0,0,0,0,0,0,0,0,0,0,0,0,0,0,0,0,0,0,0,0,0,0,0,0,0,0,0,0,0,0,0,0,0,0,-4.7474,-4.7475,0,-4.755,-4.7551,-4.7552,-4.7481,-4.7478,-4.7475,-4.7472,-4.7548,-4.7553,-4.7557,0,0,0,0,0,0,0,0,0,0,0,0,0,-4.7263,-4.7267,-4.7474,-4.7475,-4.7476,-4.755,-4.7551,-4.7552,-4.7481,-4.7478,-4.7474,-4.7471,-4.7546,-4.7552,-4.7558,0,0,0,0,0,0,0,0,0,0,0,0,0,-4.7348,-4.7268,-4.7474,-4.7449,-4.7448,-4.755,-4.7551,-4.7552,-4.7482,-4.7478,-4.7473,-4.7469,-4.7545,-4.7551,-4.7558,-4.7687,0,0,-4.758,-4.7583,0,0,0,0,0,0,0,0,-4.7343,-4.7356,-4.7452,-4.7451,-4.745,-4.7502,-4.7504,-4.7598,-4.7483,-4.7469,-4.7472,-4.7467,-4.7536,-4.7543,-4.7567,-4.7691,-4.7694,-4.758,-4.7585,-4.7588,-4.759,0,0,0,0,0,0,0,-4.7338,-4.7352,-4.7504,-4.7453,-4.7452,-4.7433,-4.7441,-4.7522,-4.7525,-4.747,-4.7465,-4.7475,-4.7534,-4.756,-4.7568,-4.7695,-4.758,-4.7586,-4.7591,-4.7594,-4.7927,-4.7931,0,0,0,0,0,0,-4.7335,-4.7348,-4.7501,-4.7506,-4.7385,-4.7441,-4.7449,-4.7489,-4.7524,-4.7526,-4.7479,-4.7471,-4.7551,-4.756,-4.7571,-4.7723,-4.7588,-4.7594,-4.7598,-4.7922,-4.7928,-4.7933,0,0,0,0,0,0,-4.733,-4.7349,-4.7498,-4.7426,-4.7443,-4.7449,-4.7495,-4.7493,-4.7519,-4.7531,-4.7531,-4.7505,-4.7548,-4.7561,-4.7659,-4.7725,-4.7597,-4.7604,-4.7917,-4.7924,-4.7931,-4.803,0,0,0,0,0,0,-4.7325,-4.7348,-4.7398,-4.7427,-4.7447,-4.7587,-4.7499,-4.7498,-4.7532,-4.7523,-4.7556,-4.7557,-4.7545,-4.7649,-4.7666,-4.7732,-4.7609,-4.7911,-4.792,-4.7928,-4.8021,-4.804,-4.8056,0,0,0,0,0,-4.7317,-4.7423,-4.7401,-4.742,-4.751,-4.7591,-4.7602,-4.7587,-4.7537,-4.7587,-4.7594,-4.7556,-4.7715,-4.7659,-4.7678,-4.7748,-4.7907,-4.7918,-4.7928,-4.8013,-4.8036,-4.8055,0,0,0,0,0,0,-4.7401,-4.7426,-4.7402,-4.7521,-4.7554,-4.7579,-4.7641,-4.7612,-4.766,-4.765,-4.7628,-4.7636,-4.774,-4.7753,-4.7691,-4.7873,-4.7802,-4.7817,-4.7861,-4.7883,-4.79,-4.7895,-4.7615,0,0,0,0,0,-4.7433,-4.7497,-4.7516,-4.7618,-4.7636,-4.7636,-4.767,-4.7656,-4.7689,-4.7703,-4.7717,-4.775,-4.7807,-4.7846,-4.7899,-4.8022,-4.8027,-4.8079,-4.8096,-4.811,-4.8123,-4.8188,-4.8211,-4.7967,-4.7967,-4.7967,0,0,-4.75,-4.7522,-4.7564,-4.7636,-4.766,-4.7725,-4.7648,-4.7721,-4.7769,-4.7714,-4.7807,-4.7819,-4.7854,-4.7965,-4.8014,-4.7979,-4.8192,-4.8124,-4.8135,-4.814,-4.8201,-4.8224,-4.8245,-4.7974,-4.7973,-4.7972,0,0,-4.7657,-4.768,-4.7768,-4.7793,-4.7831,-4.783,-4.7851,-4.7879,-4.7885,-4.7979,-4.7938,-4.7994,-4.8093,-4.812,-4.8146,-4.831,-4.8276,-4.8328,-4.8419,-4.8482,-4.8501,-4.8518,-4.8576,-4.8597,-4.8341,-4.8341,-4.8341,0,-4.7735,-4.7834,-4.7816,-4.7892,-4.7924,-4.7877,-4.7964,-4.799,-4.8043,-4.8065,-4.8025,-4.8148,-4.8168,-4.8284,-4.8324,-4.8347,-4.8369,-4.8325,-4.85,-4.8517,-4.8532,-4.8588,-4.8609,-4.8347,-4.8346,-4.8346,-4.8345,0,-4.7928,-4.7997,-4.8063,-4.8116,-4.8155,-4.8237,-4.823,-4.8272,-4.8253,-4.8256,-4.8351,-4.8373,-4.843,-4.8456,-4.8439,-4.8569,-4.8546,-4.8504,-4.8432,-4.8562,-4.8613,-4.8634,-4.8356,-4.8354,-4.8352,-4.835,0,0,-4.8141,-4.8182,-4.8207,-4.8229,-4.8267,-4.8319,-4.8397,-4.8453,-4.8488,-4.8526,-4.859,-4.8675,-4.8635,-4.8665,-4.865,-4.8706,-4.8833,-4.8656,-4.8656,-4.8688,-4.8977,-4.9009,-4.9034,-4.881,-4.8814,-4.8818,-4.8974,0,-4.8298,-4.8436,-4.8421,-4.8552,-4.8614,-4.8569,-4.8637,-4.8666,-4.867,-4.8723,-4.8726,-4.8786,-4.873,-4.8748,-4.8801,-4.8807,-4.8891,-4.8795,-4.8869,-4.8872,-4.8863,-4.9061,-4.9095,-4.9242,-4.8994,-4.8997,-4.9,0,-4.8501,-4.8546,-4.8683,-4.8709,-4.8735,-4.8797,-4.8846,-4.8897,-4.8928,-4.8927,-4.896,-4.8935,-4.9011,-4.8938,-4.9043,-4.8978,-4.9007,-4.9014,-4.9019,-4.9026,-4.8944,-4.9073,-4.9288,-4.931,-4.9031,-4.9029,-4.9027,0,-4.8642,-4.8737,-4.883,-4.8851,-4.8885,-4.8929,-4.8944,-4.8972,-4.9006,-4.9048,-4.9069,-4.912,-4.9148,-4.9187,-4.9175,-4.9123,-4.9282,-4.9208,-4.9283,-4.9283,-4.9319,-4.9317,-4.9542,-4.9338,-4.9337,-4.9337,-4.9336,0,-4.8819,-4.8905,-4.8894,-4.8952,-4.9046,-4.9027,-4.912,-4.9129,-4.9154,-4.9212,-4.9175,-4.923,-4.9211,-4.9264,-4.9255,-4.9343,-4.9355,-4.9356,-4.9352,-4.9359,-4.9359,-4.9379,-4.9368,-4.9343,-4.9341,-4.934,-4.9339,0,-4.8993,-4.899,-4.9089,-4.9112,-4.912,-4.9188,-4.9206,-4.926,-4.926,-4.9334,-4.935,-4.935,-4.9411,-4.9403,-4.947,-4.9464,-4.9573,-4.9557,-4.9563,-4.9559,-4.9634,-4.9627,-4.988,-4.9912,-4.9687,-4.9689,-4.9691,0,-4.9107,-4.9172,-4.9202,-4.9238,-4.9257,-4.9316,-4.935,-4.9334,-4.9371,-4.941,-4.9459,-4.9516,-4.9561,-4.966,-4.9665,-4.9716,-4.9701,-4.9786,-4.9709,-4.9713,-4.9702,-4.9698,-4.9704,-4.9802,-4.9804,-4.9806,-4.9808,0,-4.931,-4.9304,-4.9356,-4.9407,-4.9449,-4.9488,-4.9523,-4.9554,-4.9541,-4.9584,-4.9646,-4.9681,-4.9749,-4.9806,-4.9853,-4.9867,-4.9836,-4.9832,-4.9852,-4.986,-4.9861,-4.9861,-4.9605,-4.9827,-4.9825,-4.9823,-4.9822,-4.9822,-4.9457,-4.9512,-4.9541,-4.9599,-4.9624,-4.9657,-4.9708,-4.9715,-4.9766,-4.9821,-4.9808,-4.9877,-4.9905,-4.9965,-4.9985,-5.0038,-5.0006,-5.0035,-5.0043,-5.005,-5.0059,-4.9852,-5.0046,-5.0046,-5.0045,-5.0045,-5.0044,0,-4.9657,-4.9673,-4.9727,-4.9777,-4.9823,-4.9789,-4.9825,-4.9865,-4.9927,-4.9956,-5.0001,-5.0071,-5.0125,-5.0135,-5.0186,-5.0227,-5.0213,-5.0241,-5.0238,-5.0241,-5.0084,-5.0062,-5.0251,-5.0251,-5.0251,-5.0251,-5.0251,-5.0251,-4.9766,-4.9857,-4.9855,-4.9957,-4.9972,-5.0041,-5.0064,-5.0094,-5.0117,-5.0197,-5.0243,-5.0248,-5.0269,-5.0321,-5.0369,-5.037,-5.0391,-5.0424,-5.042,-5.0273,-5.0253,-5.0233,-5.0212,-5.0429,-5.0429,-5.0572,-5.0574,-5.0575]}]]